Chadron Municipal Airport
KCDR : rendu visible

Aérodrome :











RETROUVEZ-NOUS SUR...

 
LOGIN :

S'inscrire | Disclaimer

   EN    FR    IT 

 









Légende :    VFR   VFR Marginal   IFR   IFR Intensif   IFR Très Intensif
Visi : 
Plafond : 
>= 8 km
>= 3000ft
5 à 8 km
1000 à 3000 ft
1500m à 5 km
500 à 1000 ft
800 à 1500m
200 à 500 ft
< 800m
< 200 ft
Symboles :   Orages  Brouillard  Fortes neiges  Fortes précipitations  Vent > 20 kt






- Altitude de l'aérodrome : 3297 ft


KCDR - Chadron Municipal

DERNIER METAR :
  • 300353Z AUTO 25004KT 10SM CLR 12/M01 A3001 RMK AO2 SLP153 T01221006

METARs EXPIRÉS :
  • 300253Z AUTO 31003KT 10SM CLR 15/M01 A2999 RMK AO2 SLP148 T01501006 53005

TAF KCDR
Valide du 30 à 00h jusqu'au 01 à 00h UTC


292320Z 3000/3024 32010G20KT P6SM SKC
FM300100 32007KT P6SM SKC
FM301500 34015G25KT P6SM SCT100
FIR KZDV / Amérique du Nord



MET'MAP, la Météo Aéronautique d'un coup d'oeil ! - Copyright ORBIFLY Décembre 2007 - Disclaimer

ORBIFLY MET'MAP TEAM :

Programmation & Développement : Alexandra Zaïnal
Sur une idée originale de : Baudouin d'Aumeries
Assistance à la programmation : Marc-Olivier Méhu
Soutien technique & logistique : Manuel Goepfert

Contact : metmap@orbifly.com




SOURCES & CREDITS :

   NOAA       Earth
Advisory